[[{"header":{"parameterUnit":"m.s-1","parameterCategory":1,"la1":30.2991,"la2":30.254,"lo1":-89.0895,"lo2":-89.0444,"dy":0.0017,"dx":0.0017,"nx":28,"ny":28,"refTime":"2023-08-25T09:00:00:Z","depth":0,"parameterNumber":2,"parameterNumberName":"U-component_of_WINDS"},"data":[0,0,0,0,0,0,0,0,0,0,0,0,0,0,0,0,0,0,0,0,0,0,0,0,0,0,0,0,0,0,0,0,0,0,0,0,0,0,0,0,0,0,0,0,0,0,0,0,0,0,0,0,0,0,0,0,0,0,1.3319,1.332,0,1.3381,1.3382,1.3383,1.3372,1.3371,1.337,1.3369,1.3435,1.3437,1.344,0,0,0,0,0,0,0,0,0,0,0,0,0,1.3194,1.3196,1.3319,1.332,1.3321,1.3381,1.3382,1.3383,1.3372,1.3371,1.337,1.3368,1.3434,1.3437,1.344,0,0,0,0,0,0,0,0,0,0,0,0,0,1.3252,1.3197,1.3319,1.3323,1.3324,1.3381,1.3382,1.3383,1.3372,1.3371,1.3369,1.3368,1.3433,1.3437,1.3441,1.3499,0,0,1.3454,1.3455,0,0,0,0,0,0,0,0,1.3248,1.3256,1.3321,1.3322,1.3324,1.3367,1.3362,1.3422,1.3373,1.3354,1.3369,1.3367,1.3414,1.3419,1.3435,1.3502,1.3505,1.3454,1.3456,1.3458,1.3459,0,0,0,0,0,0,0,1.3244,1.3253,1.3344,1.3322,1.3324,1.3322,1.3328,1.3373,1.3392,1.3355,1.3355,1.3362,1.3414,1.3431,1.3436,1.3506,1.3454,1.3458,1.346,1.3462,1.3625,1.3627,0,0,0,0,0,0,1.3239,1.325,1.3342,1.3346,1.3281,1.3326,1.3333,1.3355,1.3392,1.3396,1.3364,1.3361,1.3424,1.3431,1.3438,1.3509,1.3458,1.3462,1.3464,1.3623,1.3626,1.3628,0,0,0,0,0,0,1.3236,1.3247,1.3339,1.3298,1.3309,1.3329,1.3354,1.3357,1.3373,1.3398,1.3401,1.3377,1.3423,1.3433,1.3484,1.3511,1.3464,1.3468,1.3621,1.3624,1.3627,1.3652,0,0,0,0,0,0,1.3233,1.3246,1.3268,1.3298,1.3312,1.3383,1.3356,1.3359,1.338,1.3378,1.3411,1.3415,1.3423,1.3478,1.3488,1.3516,1.3471,1.3619,1.3623,1.3626,1.3648,1.3655,1.366,0,0,0,0,0,1.3228,1.3273,1.3269,1.328,1.3339,1.3385,1.3392,1.34,1.3383,1.3405,1.3421,1.3414,1.3507,1.3483,1.3495,1.3525,1.3617,1.3622,1.3626,1.3646,1.3654,1.366,0,0,0,0,0,0,1.3246,1.3277,1.3273,1.3329,1.3354,1.3383,1.3411,1.3408,1.3439,1.3436,1.3444,1.3452,1.3504,1.3519,1.3493,1.3583,1.356,1.3566,1.3571,1.3579,1.3585,1.358,1.3474,0,0,0,0,0,1.3257,1.329,1.3316,1.3363,1.3375,1.3391,1.3411,1.3415,1.3442,1.3453,1.3472,1.3499,1.3534,1.3557,1.3591,1.3651,1.3658,1.3677,1.3683,1.3688,1.3693,1.3726,1.3735,1.3641,1.3641,1.3641,0,0,1.3279,1.33,1.3321,1.3367,1.3387,1.3422,1.34,1.3439,1.3466,1.3459,1.3508,1.3524,1.3555,1.361,1.3636,1.3625,1.3721,1.3693,1.3697,1.37,1.3732,1.3741,1.3748,1.3644,1.3644,1.3643,0,0,1.3337,1.3356,1.3397,1.3417,1.3448,1.3458,1.3468,1.3497,1.3507,1.3557,1.3552,1.3585,1.3645,1.3667,1.3686,1.3753,1.3749,1.3764,1.3796,1.3828,1.3835,1.3842,1.3866,1.3875,1.377,1.377,1.377,0,1.3361,1.3413,1.3419,1.3458,1.3479,1.3473,1.3515,1.3535,1.3575,1.359,1.3577,1.3653,1.3673,1.3734,1.375,1.3766,1.3778,1.376,1.3833,1.384,1.3846,1.387,1.3879,1.3772,1.3771,1.3771,1.3771,0,1.3441,1.3478,1.3507,1.3545,1.3569,1.361,1.3622,1.3646,1.3648,1.3659,1.3711,1.3735,1.3774,1.3788,1.379,1.385,1.3842,1.3831,1.3808,1.3857,1.3879,1.3888,1.3774,1.3773,1.3773,1.3772,0,0,1.3512,1.3553,1.3564,1.3581,1.3614,1.3643,1.3684,1.3721,1.3741,1.3769,1.3804,1.3855,1.3845,1.3867,1.3871,1.3899,1.3951,1.3885,1.3886,1.3897,1.4019,1.4028,1.4038,1.3948,1.395,1.3951,1.4017,0,1.3574,1.3644,1.3651,1.3715,1.3749,1.3744,1.378,1.3804,1.3816,1.3848,1.3862,1.3898,1.3882,1.3895,1.3923,1.3939,1.3976,1.3935,1.3982,1.3983,1.3974,1.4049,1.4058,1.4119,1.4026,1.4027,1.4028,0,1.3655,1.3685,1.3751,1.378,1.3795,1.3826,1.3861,1.3891,1.3919,1.3926,1.395,1.3951,1.3994,1.3968,1.4028,1.3999,1.4019,1.403,1.4032,1.4037,1.4009,1.4057,1.4138,1.4147,1.4042,1.4041,1.404,0,1.3701,1.3757,1.3805,1.382,1.3854,1.3876,1.3892,1.3918,1.394,1.3971,1.3985,1.4021,1.404,1.4068,1.4079,1.4059,1.4138,1.4114,1.4146,1.4146,1.4163,1.4162,1.4249,1.4175,1.4175,1.4175,1.4175,0,1.3769,1.381,1.3826,1.3855,1.3901,1.3909,1.3954,1.3969,1.3993,1.4025,1.4024,1.4054,1.4066,1.4099,1.4108,1.4156,1.4165,1.4173,1.4175,1.4173,1.4172,1.4186,1.4182,1.4177,1.4177,1.4176,1.4176,0,1.3828,1.384,1.3891,1.3919,1.3927,1.396,1.3985,1.4013,1.4025,1.4066,1.4077,1.4096,1.4134,1.4148,1.4195,1.4201,1.4257,1.4255,1.4247,1.4248,1.4279,1.4276,1.4379,1.4393,1.431,1.431,1.4311,0,1.3871,1.3902,1.3933,1.3955,1.3971,1.4005,1.4027,1.4036,1.4059,1.4094,1.4119,1.4157,1.4188,1.4251,1.4269,1.4306,1.4305,1.4338,1.431,1.4308,1.4306,1.4304,1.4307,1.4344,1.4345,1.4345,1.4346,0,1.3946,1.395,1.3981,1.4015,1.4042,1.4069,1.4095,1.4113,1.4126,1.4152,1.4191,1.4216,1.4264,1.4302,1.4339,1.4356,1.4354,1.4354,1.4364,1.4363,1.4357,1.4361,1.4262,1.4352,1.4351,1.4351,1.4351,1.435,1.3998,1.4026,1.4052,1.4087,1.4108,1.4133,1.4161,1.4176,1.4209,1.4248,1.4251,1.4294,1.4322,1.4371,1.439,1.4424,1.4415,1.4428,1.4432,1.4435,1.4438,1.4351,1.4431,1.4431,1.4431,1.443,1.443,0,1.4073,1.409,1.4122,1.4158,1.4187,1.4181,1.421,1.4234,1.4271,1.4297,1.4327,1.4372,1.441,1.4431,1.4469,1.4492,1.4492,1.4502,1.45,1.4504,1.4444,1.4432,1.4501,1.4501,1.4501,1.4501,1.4501,1.4501,1.4115,1.4162,1.4169,1.4227,1.4243,1.4284,1.4301,1.4324,1.4345,1.4396,1.4426,1.4439,1.4464,1.4503,1.4538,1.4543,1.4557,1.4568,1.4573,1.4516,1.4508,1.4501,1.449,1.4571,1.4571,1.463,1.4631,1.4631]},{"header":{"parameterUnit":"m.s-1","parameterCategory":1,"la1":30.2991,"la2":30.254,"lo1":-89.0895,"lo2":-89.0444,"dy":0.0017,"dx":0.0017,"nx":28,"ny":28,"refTime":"2023-08-25T09:00:00:Z","depth":0,"parameterNumber":3,"parameterNumberName":"V-component_of_WINDS"},"data":[0,0,0,0,0,0,0,0,0,0,0,0,0,0,0,0,0,0,0,0,0,0,0,0,0,0,0,0,0,0,0,0,0,0,0,0,0,0,0,0,0,0,0,0,0,0,0,0,0,0,0,0,0,0,0,0,0,0,-0.0972,-0.0971,0,-0.0952,-0.0952,-0.0952,-0.0962,-0.0962,-0.0963,-0.0963,-0.0943,-0.0942,-0.0941,0,0,0,0,0,0,0,0,0,0,0,0,0,-0.1018,-0.1017,-0.0972,-0.0971,-0.0971,-0.0952,-0.0952,-0.0952,-0.0962,-0.0962,-0.0963,-0.0964,-0.0944,-0.0943,-0.0941,0,0,0,0,0,0,0,0,0,0,0,0,0,-0.0998,-0.1016,-0.0972,-0.0974,-0.0974,-0.0952,-0.0952,-0.0952,-0.0962,-0.0962,-0.0963,-0.0964,-0.0944,-0.0943,-0.0941,-0.0916,0,0,-0.0937,-0.0936,0,0,0,0,0,0,0,0,-0.0999,-0.0996,-0.0974,-0.0974,-0.0974,-0.096,-0.0961,-0.094,-0.0962,-0.0966,-0.0963,-0.0964,-0.0948,-0.0947,-0.0941,-0.0915,-0.0915,-0.0936,-0.0936,-0.0935,-0.0934,0,0,0,0,0,0,0,-0.1,-0.0997,-0.0964,-0.0974,-0.0973,-0.0976,-0.0974,-0.0957,-0.0953,-0.0966,-0.0967,-0.0964,-0.0949,-0.0943,-0.0941,-0.0914,-0.0936,-0.0935,-0.0934,-0.0934,-0.0868,-0.0867,0,0,0,0,0,0,-0.1002,-0.0998,-0.0965,-0.0963,-0.0989,-0.0975,-0.0972,-0.0964,-0.0953,-0.0953,-0.0964,-0.0965,-0.0945,-0.0943,-0.094,-0.0911,-0.0935,-0.0933,-0.0933,-0.0869,-0.0868,-0.0867,0,0,0,0,0,0,-0.1003,-0.0998,-0.0965,-0.0981,-0.0977,-0.0973,-0.0963,-0.0963,-0.0957,-0.0952,-0.0951,-0.0958,-0.0945,-0.0942,-0.0922,-0.091,-0.0933,-0.0931,-0.087,-0.0868,-0.0867,-0.0852,0,0,0,0,0,0,-0.1004,-0.0999,-0.0989,-0.0981,-0.0976,-0.0948,-0.0963,-0.0962,-0.0955,-0.0956,-0.0947,-0.0946,-0.0946,-0.0925,-0.0921,-0.0909,-0.093,-0.0871,-0.0869,-0.0868,-0.0853,-0.085,-0.0847,0,0,0,0,0,-0.1005,-0.0985,-0.0989,-0.0984,-0.0964,-0.0947,-0.0944,-0.0945,-0.0954,-0.0944,-0.0941,-0.0946,-0.0912,-0.0922,-0.0918,-0.0905,-0.0871,-0.0869,-0.0868,-0.0855,-0.0851,-0.0847,0,0,0,0,0,0,-0.0992,-0.0984,-0.0988,-0.0964,-0.0956,-0.0949,-0.0937,-0.0941,-0.093,-0.0932,-0.0933,-0.093,-0.091,-0.0906,-0.0917,-0.0881,-0.0893,-0.089,-0.0885,-0.0881,-0.0878,-0.0879,-0.0929,0,0,0,0,0,-0.0987,-0.0973,-0.0967,-0.0947,-0.0943,-0.0941,-0.0933,-0.0934,-0.0926,-0.0923,-0.0918,-0.0909,-0.0897,-0.0889,-0.0877,-0.0853,-0.0851,-0.0842,-0.0839,-0.0837,-0.0834,-0.0822,-0.0817,-0.086,-0.0861,-0.0861,0,0,-0.0975,-0.0969,-0.096,-0.0944,-0.0938,-0.0925,-0.0938,-0.0923,-0.0913,-0.092,-0.0901,-0.0897,-0.0888,-0.0866,-0.0856,-0.0862,-0.0822,-0.0834,-0.0832,-0.0831,-0.0819,-0.0815,-0.0811,-0.0859,-0.0859,-0.086,0,0,-0.0947,-0.0941,-0.0924,-0.0917,-0.0908,-0.0907,-0.0903,-0.0894,-0.0892,-0.0873,-0.0879,-0.0867,-0.0845,-0.0839,-0.0833,-0.0803,-0.0808,-0.0799,-0.0783,-0.0771,-0.0768,-0.0765,-0.0754,-0.0751,-0.0797,-0.0797,-0.0797,0,-0.0933,-0.0913,-0.0914,-0.0899,-0.0892,-0.0899,-0.0881,-0.0875,-0.0863,-0.0858,-0.0864,-0.0838,-0.0832,-0.0809,-0.0802,-0.0797,-0.0792,-0.08,-0.0768,-0.0765,-0.0762,-0.0753,-0.0749,-0.0796,-0.0796,-0.0796,-0.0796,0,-0.0897,-0.0883,-0.087,-0.0858,-0.085,-0.0834,-0.0833,-0.0824,-0.0826,-0.0824,-0.0805,-0.0798,-0.0786,-0.078,-0.0782,-0.0757,-0.0761,-0.0768,-0.078,-0.0757,-0.0748,-0.0744,-0.0794,-0.0795,-0.0795,-0.0795,0,0,-0.0859,-0.0849,-0.0844,-0.0839,-0.0829,-0.0819,-0.0803,-0.0791,-0.0784,-0.0775,-0.0762,-0.0744,-0.075,-0.0743,-0.0744,-0.0734,-0.0711,-0.0742,-0.0742,-0.0737,-0.0684,-0.0679,-0.0675,-0.0714,-0.0713,-0.0713,-0.0685,0,-0.0831,-0.0803,-0.0804,-0.0779,-0.0767,-0.0773,-0.0759,-0.0752,-0.075,-0.0739,-0.0737,-0.0724,-0.0733,-0.0729,-0.0719,-0.0716,-0.07,-0.0718,-0.0702,-0.0702,-0.0704,-0.067,-0.0664,-0.0638,-0.0681,-0.0681,-0.068,0,-0.0793,-0.0784,-0.0757,-0.075,-0.0745,-0.0733,-0.0722,-0.0711,-0.0704,-0.0703,-0.0695,-0.0698,-0.0683,-0.0696,-0.0674,-0.0686,-0.068,-0.0678,-0.0677,-0.0675,-0.069,-0.0667,-0.063,-0.0626,-0.0674,-0.0675,-0.0675,0,-0.0769,-0.0749,-0.0731,-0.0726,-0.0718,-0.0709,-0.0705,-0.0698,-0.0691,-0.0682,-0.0677,-0.0666,-0.066,-0.0651,-0.0651,-0.066,-0.063,-0.0642,-0.0629,-0.0629,-0.0622,-0.0623,-0.0583,-0.0618,-0.0618,-0.0618,-0.0618,0,-0.0737,-0.0721,-0.072,-0.0709,-0.0691,-0.0692,-0.0674,-0.0671,-0.0665,-0.0654,-0.0658,-0.0648,-0.0648,-0.0637,-0.0637,-0.062,-0.0617,-0.0616,-0.0617,-0.0616,-0.0616,-0.0612,-0.0614,-0.0617,-0.0617,-0.0618,-0.0618,0,-0.0707,-0.0706,-0.0686,-0.068,-0.0678,-0.0665,-0.0659,-0.0649,-0.0647,-0.0633,-0.0629,-0.0627,-0.0614,-0.0614,-0.0599,-0.0599,-0.0578,-0.058,-0.0581,-0.0581,-0.0568,-0.0569,-0.0524,-0.0519,-0.0557,-0.0557,-0.0556,0,-0.0686,-0.0674,-0.0666,-0.0659,-0.0655,-0.0643,-0.0635,-0.0637,-0.0629,-0.062,-0.061,-0.0598,-0.0588,-0.0568,-0.0565,-0.0554,-0.0556,-0.0541,-0.0554,-0.0554,-0.0556,-0.0557,-0.0556,-0.0538,-0.0538,-0.0538,-0.0537,0,-0.065,-0.0651,-0.064,-0.0629,-0.0621,-0.0612,-0.0605,-0.0598,-0.0599,-0.059,-0.0577,-0.057,-0.0555,-0.0543,-0.0533,-0.0529,-0.0533,-0.0533,-0.053,-0.0529,-0.053,-0.0529,-0.0574,-0.0534,-0.0535,-0.0535,-0.0535,-0.0535,-0.0625,-0.0614,-0.0607,-0.0595,-0.059,-0.0583,-0.0573,-0.057,-0.0559,-0.0548,-0.0549,-0.0535,-0.0528,-0.0514,-0.051,-0.0499,-0.0504,-0.0499,-0.0497,-0.0496,-0.0495,-0.0531,-0.0497,-0.0497,-0.0497,-0.0497,-0.0497,0,-0.0589,-0.0585,-0.0574,-0.0564,-0.0554,-0.056,-0.0552,-0.0544,-0.0531,-0.0524,-0.0515,-0.0501,-0.0489,-0.0485,-0.0474,-0.0467,-0.0468,-0.0464,-0.0464,-0.0463,-0.049,-0.0495,-0.0462,-0.0462,-0.0462,-0.0462,-0.0462,-0.0462,-0.057,-0.0552,-0.0552,-0.0532,-0.0528,-0.0515,-0.0509,-0.0503,-0.0498,-0.0481,-0.0472,-0.047,-0.0464,-0.0453,-0.0443,-0.0442,-0.0438,-0.0432,-0.0432,-0.0458,-0.0461,-0.0465,-0.0469,-0.0431,-0.0431,-0.0406,-0.0406,-0.0406]}]]